TimeICT,TemperatureF,Dew PointF,Humidity,Sea Level PressureIn,VisibilityMPH,Wind Direction,Wind SpeedMPH,Gust SpeedMPH,PrecipitationIn,Events,Conditions,WindDirDegrees,DateUTC
12:00 AM,78.8,69.8,74,29.77,5.6,NNE,9.2,-,N/A,,Partly Cloudy,20,2013-12-05 17:00:00
12:30 AM,78.8,66.2,65,29.77,5.6,NNE,9.2,-,N/A,,Partly Cloudy,30,2013-12-05 17:30:00
1:00 AM,78.8,62.6,57,29.77,5.6,NNE,16.1,-,N/A,,Partly Cloudy,30,2013-12-05 18:00:00
6:00 AM,73.4,59.0,61,29.80,6.2,ENE,9.2,-,N/A,,Partly Cloudy,60,2013-12-05 23:00:00
7:30 AM,75.2,59.0,57,29.80,-9999.0,NE,16.1,-,N/A,,Clear,50,2013-12-06 00:30:00
8:00 AM,77.0,60.8,57,29.83,-9999.0,ENE,12.7,-,N/A,,Clear,60,2013-12-06 01:00:00
8:30 AM,77.0,60.8,57,29.83,-9999.0,NE,16.1,-,N/A,,Clear,50,2013-12-06 01:30:00
9:00 AM,77.0,60.8,57,29.83,-9999.0,ENE,15.0,-,N/A,,Clear,60,2013-12-06 02:00:00
9:30 AM,78.8,60.8,54,29.83,-9999.0,NE,15.0,-,N/A,,Clear,40,2013-12-06 02:30:00
10:00 AM,80.6,60.8,51,29.83,-9999.0,NE,12.7,-,N/A,,Clear,40,2013-12-06 03:00:00
10:30 AM,80.6,71.6,74,29.83,-9999.0,NE,12.7,-,N/A,,Clear,50,2013-12-06 03:30:00
11:00 AM,82.4,60.8,48,29.83,-9999.0,ENE,12.7,-,N/A,,Clear,60,2013-12-06 04:00:00
11:30 AM,82.4,60.8,48,29.80,-9999.0,ENE,11.5,-,N/A,,Clear,60,2013-12-06 04:30:00
12:00 PM,84.2,62.6,48,29.80,-9999.0,ENE,9.2,-,N/A,,Clear,70,2013-12-06 05:00:00
12:30 PM,84.2,60.8,45,29.77,-9999.0,NE,9.2,-,N/A,,Clear,50,2013-12-06 05:30:00
1:00 PM,86.0,62.6,45,29.77,-9999.0,ENE,8.1,-,N/A,,Clear,70,2013-12-06 06:00:00
1:30 PM,84.2,60.8,45,29.74,-9999.0,ENE,11.5,-,N/A,,Clear,60,2013-12-06 06:30:00
2:00 PM,84.2,62.6,48,29.74,-9999.0,NE,10.4,-,N/A,,Clear,50,2013-12-06 07:00:00
2:30 PM,86.0,60.8,43,29.74,-9999.0,North,10.4,-,N/A,,Clear,10,2013-12-06 07:30:00
3:00 PM,86.0,59.0,40,29.74,-9999.0,East,10.4,-,N/A,,Clear,80,2013-12-06 08:00:00
3:30 PM,86.0,57.2,37,29.74,-9999.0,NNE,6.9,-,N/A,,Clear,30,2013-12-06 08:30:00
4:00 PM,86.0,59.0,40,29.74,-9999.0,NNE,10.4,-,N/A,,Clear,30,2013-12-06 09:00:00
4:30 PM,86.0,60.8,43,29.74,-9999.0,NE,11.5,-,N/A,,Clear,40,2013-12-06 09:30:00
5:00 PM,84.2,60.8,45,29.74,-9999.0,NNW,9.2,-,N/A,,Clear,330,2013-12-06 10:00:00
5:30 PM,82.4,64.4,54,29.74,-9999.0,NNW,8.1,-,N/A,,Clear,330,2013-12-06 10:30:00
6:00 PM,80.6,64.4,58,29.77,-9999.0,NNW,5.8,-,N/A,,Clear,330,2013-12-06 11:00:00
6:30 PM,80.6,64.4,58,29.77,5.6,NNW,4.6,-,N/A,,Unknown,330,2013-12-06 11:30:00
7:00 PM,80.6,64.4,58,29.77,-9999.0,North,-9999.0,-,N/A,,Unknown,0,2013-12-06 12:00:00
7:30 PM,80.6,64.4,58,29.80,-9999.0,North,-9999.0,-,N/A,,Unknown,0,2013-12-06 12:30:00
8:00 PM,80.6,64.4,58,29.83,-9999.0,North,-9999.0,-,N/A,,Unknown,0,2013-12-06 13:00:00
8:30 PM,78.8,64.4,61,29.83,-9999.0,North,-9999.0,-,N/A,,Unknown,0,2013-12-06 13:30:00
9:00 PM,78.8,64.4,61,29.83,-9999.0,North,-9999.0,-,N/A,,Unknown,0,2013-12-06 14:00:00
9:30 PM,77.0,66.2,69,29.83,-9999.0,North,-9999.0,-,N/A,,Unknown,0,2013-12-06 14:30:00
10:00 PM,77.0,66.2,69,29.80,-9999.0,North,-9999.0,-,N/A,,Unknown,0,2013-12-06 15:00:00
10:30 PM,77.0,66.2,69,29.80,-9999.0,North,-9999.0,-,N/A,,Unknown,0,2013-12-06 15:30:00
11:00 PM,77.0,66.2,69,29.80,-9999.0,North,-9999.0,-,N/A,,Unknown,0,2013-12-06 16:00:00
11:30 PM,77.0,66.2,69,29.80,-9999.0,North,-9999.0,-,N/A,,Unknown,0,2013-12-06 16:30:00